User: anonymous   Login
Location: Unspecified
(0.0000°N, 0.0000°E)
Time: 19:32:43
(UTC+00:00)
Language:

LILACSAT-1 - Orbit

View from above orbital plane
View from above orbital plane
View from above satellite
View from above satellite

Ground track
Ground track

The orbit data is extracted from the following two-line orbital elements,

1 42725U 98067ME  19077.84802428  .00706131  28011-3  71345-3 0  9996
2 42725  51.6269  13.8769 0002966 163.9281 232.6259 16.10368099103969
Epoch (UTC): 18 March 2019 20:21:09
Eccentricity: 0.0002966
inclination: 51.6269°
perigee height: 244 km
apogee height: 248 km
right ascension of ascending node: 13.8769°
argument of perigee: 163.9281°
revolutions per day: 16.10368099
mean anomaly at epoch: 232.6259°
orbit number at epoch: 10396

The dashed part of the orbit path shows where the satellite is in the earth's shadow,  

DLR